Tracking 25711 objects as of 22-May-2022
HD Live streaming from Space Station
objects crossing your sky now

FLOCK 4X 39

Track FLOCK 4X 39 now!
10-day predictions


NORAD ID: 51029
Int'l Code: 2022-002AX
Perigee: 518.6 km
Apogee: 537.8 km
Inclination: 97.5 °
Period: 95.1 minutes
Semi major axis: 6899 km
RCS: Unknown
Launch date: January 13, 2022
Source: United States (US)
Launch site: AIR FORCE EASTERN TEST RANGE (AFETR)
aabbcc
Your satellite tracking list
Your tracking list is empty




NASA's NSSDC Master Catalog

Two Line Element Set (TLE):
1 51029U 22002AX  22142.12474992  .00016577  00000-0  88841-3 0  9990
2 51029  97.4849 209.7350 0013920 147.2193 212.9906 15.14982110 19447
Source of the keplerian elements: AFSPC